Flag for Poland Weather past 2 weeks in Tychy, Poland

41 °F


Feels Like: 35 °F
Forecast: 42 / 51 °F
Wind: 10 mph from East

Location: Katowice Airport

Current Time: Oct 14, 2015 at 6:25:54 AM

Latest Report: Oct 14, 2015 at 6:00 AM

Visibility: 2 mi

Pressure: 30.04 "Hg

Humidity: 93%

Dew point: 39 °F

Location of TychyLocation

Historic Weather in Tychy — Graph


Tychy temperature yesterday

Maximum temperature yesterday: 39 °F (at 1:00 PM)
Minimum temperature yesterday: 34 °F (at 12:00 AM)
Average temperature yesterday: 37 °F

Past Weeks' High & Low Weather Summary

High73 °F (Oct 4, 3:00 PM)100% (Sep 29, 5:30 AM)30.57 "Hg (Sep 29, 5:30 AM)
Low28 °F (Oct 1, 5:00 AM)32% (Oct 2, 3:00 PM)29.86 "Hg (Oct 6, 4:30 PM)
Average46 °F72%30.17 "Hg
* Reported Sep 29 5:00 AM — Oct 14 5:00 AM, Tychy, Weather by CustomWeather, © 2015

Note: Actual official high and low records may vary slightly from our data, if they occured in-between our weather recording intervals... More about our weather records


Tychy weather history for previous 24 hours

Time TempWeatherWind HumidityBarometerVisibility
5:00 AM
Wed, Oct 14
41 °FFog.9 mph93%30.07 "Hg3 mi
4:30 AM41 °FFog.8 mph93%30.07 "Hg3 mi
4:00 AM41 °FFog.8 mph93%30.07 "Hg3 mi
3:30 AM39 °FFog.6 mph100%30.07 "Hg3 mi
3:00 AM41 °FFog.8 mph93%30.07 "Hg3 mi
2:30 AM41 °FFog.7 mph93%30.09 "Hg3 mi
2:00 AM39 °FOvercast.9 mph100%30.09 "Hg4 mi
1:30 AM39 °FOvercast.9 mph93%30.09 "Hg4 mi
1:00 AM39 °FOvercast.9 mph93%30.09 "Hg4 mi
12:30 AM39 °FOvercast.10 mph93%30.09 "Hg4 mi
12:00 AM39 °FOvercast.12 mph93%30.09 "Hg4 mi
11:30 PM
Tue, Oct 13
39 °FOvercast.9 mph93%30.09 "Hg4 mi
11:00 PM39 °FFog.8 mph93%30.12 "Hg3 mi
10:30 PM39 °FFog.8 mph93%30.09 "Hg3 mi
10:00 PM37 °FFog.6 mph100%30.12 "Hg3 mi
9:30 PM37 °FFog.8 mph93%30.12 "Hg3 mi
9:00 PM37 °FFog.7 mph93%30.12 "Hg3 mi
8:30 PM37 °FOvercast.7 mph93%30.12 "Hg4 mi
8:00 PM37 °FOvercast.8 mph93%30.12 "Hg4 mi
7:30 PM37 °FOvercast.8 mph100%30.09 "Hg4 mi
7:00 PM39 °FOvercast.8 mph87%30.09 "Hg4 mi
6:30 PM39 °FFog.9 mph93%30.09 "Hg3 mi
6:00 PM39 °FOvercast.6 mph93%30.09 "Hg4 mi
5:30 PM39 °FLow clouds.7 mph93%30.09 "Hg4 mi
5:00 PM39 °FMore clouds than sun.9 mph93%30.09 "Hg4 mi
4:30 PM39 °FFog.9 mph93%30.09 "Hg3 mi
4:00 PM39 °FLow clouds.7 mph93%30.09 "Hg4 mi
3:30 PM39 °FFog.8 mph93%30.09 "Hg3 mi
3:00 PM39 °FFog.8 mph93%30.09 "Hg3 mi
2:30 PM39 °FFog.6 mph93%30.09 "Hg3 mi
2:00 PM39 °FFog.5 mph87%30.12 "Hg2 mi
1:30 PM39 °FFog.5 mph87%30.12 "Hg2 mi
1:00 PM39 °FFog.5 mph93%30.12 "Hg2 mi
12:30 PM37 °FFog.5 mph100%30.12 "Hg2 mi
12:00 PM37 °FFog.3 mph100%30.12 "Hg2 mi
11:30 AM37 °FBroken clouds.5 mph93%30.09 "Hg4 mi
11:00 AM37 °FFog.5 mph93%30.09 "Hg3 mi
10:30 AM37 °FFog.5 mph93%30.09 "Hg3 mi
10:00 AM37 °FFog.5 mph93%30.09 "Hg3 mi
9:30 AM36 °FFog.3 mph100%30.09 "Hg3 mi
9:00 AM36 °FFog.3 mph100%30.09 "Hg2 mi
8:30 AM36 °FFog.3 mph100%30.09 "Hg2 mi
8:00 AM36 °FFog.2 mph93%30.09 "Hg2 mi
7:30 AM34 °FFog.1 mph100%30.09 "Hg1 mi
7:00 AM34 °FFog.1 mph100%30.09 "Hg1 mi
6:30 AM34 °FFog.1 mph100%30.07 "Hg1 mi
6:00 AM34 °FFog.1 mph100%30.07 "Hg1 mi
Weather by CustomWeather, © 2015

See weather overviewHow to use our weather pages